Weather History for Abilene, TX

Change the Weather History Date:

Saturday, June 22, 2013

  Actual Average Record
Temperature  
Mean Temperature 85 °F 81 °F  
Max Temperature 95 °F 92 °F 105 °F (1953)
Min Temperature 75 °F 70 °F 56 °F (1902)
Degree Days  
Heating Degree Days 0 0  
Month to date heating degree days 0 0  
Since 1 June heating degree days 0 0  
Since 1 July heating degree days 2301 2558  
Cooling Degree Days 20 16  
Month to date cooling degree days 347 305  
Year to date cooling degree days 828 702  
Since 1 June cooling degree days 347 305  
Growing Degree Days 35 (Base 50)    
Moisture  
Dew Point 62 °F    
Average Humidity 51    
Maximum Humidity 74    
Minimum Humidity 28    
Precipitation  
Precipitation 0.00 in 0.10 in 1.76 in (1992)
Month to date precipitation 5.04 2.84  
Year to date precipitation 11.26 11.78  
Sea Level Pressure  
Sea Level Pressure 29.87 in    
Wind  
Wind Speed 16 mph (South)    
Max Wind Speed 26 mph    
Max Gust Speed 33 mph    
Visibility 10 miles    
Events      
T = Trace of Precipitation, MM = Missing Value Source: NWS Daily Summary

Daily Weather History Graph

Daily Weather History Graph

Search for Another Location

Airport:

Trip Planner

Search our weather history database for the weather conditions in past years. The results will help you decide how hot, cold, wet, or windy it might be!

Date:

Astronomy

Jun. 22, 2013 Rise Set
Actual Time 6:32 AM CDT 8:49 PM CDT
Civil Twilight 6:03 AM CDT 9:17 PM CDT
Nautical Twilight 5:29 AM CDT 9:52 PM CDT
Astronomical Twilight 4:51 AM CDT 10:30 PM CDT
Moon 8:09 PM CDT (6/22) 5:43 AM CDT (6/22)
Length of Visible Light 15h 13m
Length of Day
14h 16m
Waxing Gibbous, 99% of the Moon is Illuminated
Jun 22
Waxing Gibbous
Jun 23
Full
Jun 29
Last Quarter
Jul 8
New
Jul 15
First Quarter

Hourly Weather History & Observations

Time (CDT) Temp. Heat Index Dew Point Humidity Pressure Visibility Wind Dir Wind Speed Gust Speed Precip Events Conditions
12:52 AM 79.0 °F - 62.1 °F 56% 29.91 in 10.0 mi SSE 8.1 mph - N/A   Clear
1:52 AM 80.1 °F 81.1 °F 61.0 °F 52% 29.89 in 10.0 mi SSE 12.7 mph - N/A   Clear
2:52 AM 79.0 °F - 62.1 °F 56% 29.86 in 10.0 mi SSE 15.0 mph 23.0 mph N/A   Clear
3:52 AM 78.1 °F - 62.1 °F 58% 29.87 in 10.0 mi SSE 15.0 mph - N/A   Clear
4:52 AM 77.0 °F - 63.0 °F 62% 29.87 in 10.0 mi South 11.5 mph - N/A   Clear
5:52 AM 75.9 °F - 64.0 °F 67% 29.88 in 10.0 mi South 12.7 mph - N/A   Clear
6:52 AM 75.0 °F - 64.9 °F 71% 29.90 in 10.0 mi South 11.5 mph - N/A   Clear
7:52 AM 75.0 °F - 66.9 °F 76% 29.90 in 10.0 mi SSE 15.0 mph 21.9 mph N/A   Clear
8:52 AM 78.1 °F - 68.0 °F 71% 29.92 in 10.0 mi South 19.6 mph 26.5 mph N/A   Clear
9:52 AM 82.0 °F 84.5 °F 66.9 °F 60% 29.92 in 10.0 mi South 19.6 mph 27.6 mph N/A   Clear
10:52 AM 82.9 °F 85.4 °F 66.9 °F 58% 29.94 in 10.0 mi South 20.7 mph 28.8 mph N/A   Clear
11:52 AM 86.0 °F 88.2 °F 66.0 °F 51% 29.92 in 10.0 mi SSW 19.6 mph 32.2 mph N/A   Clear
12:52 PM 89.1 °F 91.3 °F 66.0 °F 46% 29.91 in 10.0 mi SSE 21.9 mph 27.6 mph N/A   Clear
1:52 PM 91.0 °F 93.0 °F 64.9 °F 42% 29.88 in 10.0 mi South 20.7 mph 33.4 mph N/A   Clear
2:52 PM 93.0 °F 93.0 °F 61.0 °F 34% 29.86 in 10.0 mi SSW 20.7 mph 29.9 mph N/A   Clear
3:52 PM 93.9 °F 94.0 °F 61.0 °F 33% 29.84 in 10.0 mi South 15.0 mph 28.8 mph N/A   Clear
4:52 PM 93.9 °F 92.9 °F 57.9 °F 30% 29.81 in 10.0 mi South 18.4 mph 27.6 mph N/A   Clear
5:52 PM 93.9 °F 92.6 °F 57.0 °F 29% 29.80 in 10.0 mi South 18.4 mph 24.2 mph N/A   Clear
6:52 PM 93.0 °F 91.4 °F 55.9 °F 29% 29.78 in 10.0 mi South 16.1 mph 27.6 mph N/A   Clear
7:52 PM 91.0 °F 89.2 °F 55.9 °F 30% 29.78 in 10.0 mi South 15.0 mph 25.3 mph N/A   Clear
8:52 PM 87.1 °F 86.5 °F 59.0 °F 39% 29.80 in 10.0 mi South 9.2 mph - N/A   Clear
9:52 PM 84.9 °F 84.8 °F 60.1 °F 43% 29.82 in 10.0 mi SSE 9.2 mph - N/A   Clear
10:52 PM 84.0 °F 84.4 °F 61.0 °F 46% 29.84 in 10.0 mi SSE 13.8 mph - N/A   Clear
11:52 PM 81.0 °F 81.7 °F 61.0 °F 50% 29.84 in 10.0 mi SSE 11.5 mph - N/A   Clear